Date,TemperatureHighF,TemperatureAvgF,TemperatureLowF,DewpointHighF,DewpointAvgF,DewpointLowF,HumidityHigh,HumidityAvg,HumidityLow,PressureMaxIn,PressureMinIn,WindSpeedMaxMPH,WindSpeedAvgMPH,GustSpeedMaxMPH,PrecipitationSumIn
2013-2-1,18,9,1,-100,-100,-100,0,0,100,0.00,40.00,0,-999,0,0.00
2013-2-2,26,19,13,-100,-100,-100,0,0,100,0.00,40.00,0,-999,0,0.00
2013-2-3,25,22,14,-100,-100,-100,0,0,100,0.00,40.00,0,-999,0,0.00
2013-2-4,32,23,15,-100,-100,-100,0,0,100,0.00,40.00,0,-999,0,0.00
2013-2-5,34,26,15,-100,-100,-100,0,0,100,0.00,40.00,0,-999,0,0.00
2013-2-6,41,32,21,-100,-100,-100,0,0,100,0.00,40.00,0,-999,0,0.00
2013-2-7,36,35,31,-100,-100,-100,0,0,100,0.00,40.00,0,-999,0,0.00
2013-2-8,36,27,20,-100,-100,-100,0,0,100,0.00,40.00,0,-999,0,0.00
2013-2-9,33,29,20,-100,-100,-100,0,0,100,0.00,40.00,0,-999,0,0.00
2013-2-10,46,38,32,-100,-100,-100,0,0,100,0.00,40.00,0,-999,0,0.00
2013-2-11,37,32,28,-100,-100,-100,0,0,100,0.00,40.00,0,-999,0,0.00
2013-2-12,34,29,25,-100,-100,-100,0,0,100,0.00,40.00,0,-999,0,0.00
2013-2-13,45,34,26,-100,-100,-100,0,0,100,0.00,40.00,0,-999,0,0.00
2013-2-14,42,37,34,-100,-100,-100,0,0,100,0.00,40.00,0,-999,0,0.00
2013-2-15,35,28,21,-100,-100,-100,0,0,100,0.00,40.00,0,-999,0,0.00
2013-2-16,28,20,14,-100,-100,-100,0,0,100,0.00,40.00,0,-999,0,0.00
2013-2-17,33,25,14,-100,-100,-100,0,0,100,0.00,40.00,0,-999,0,0.00
2013-2-18,54,38,21,-100,-100,-100,0,0,100,0.00,40.00,0,-999,0,0.00
2013-2-19,21,14,9,-100,-100,-100,0,0,100,0.00,40.00,0,-999,0,0.00
2013-2-20,25,16,6,-100,-100,-100,0,0,100,0.00,40.00,0,-999,0,0.00
2013-2-21,29,23,12,-100,-100,-100,0,0,100,0.00,40.00,0,-999,0,0.00
2013-2-22,32,28,25,-100,-100,-100,0,0,100,0.00,40.00,0,-999,0,0.00
2013-2-23,29,24,15,-100,-100,-100,0,0,100,0.00,40.00,0,-999,0,0.00
2013-2-24,35,24,9,-100,-100,-100,0,0,100,0.00,40.00,0,-999,0,0.00
2013-2-25,41,30,18,-100,-100,-100,0,0,100,0.00,40.00,0,-999,0,0.00
2013-2-26,37,34,31,-100,-100,-100,0,0,100,0.00,40.00,0,-999,0,0.00
2013-2-27,35,32,30,-100,-100,-100,0,0,100,0.00,40.00,0,-999,0,0.00
2013-2-28,36,34,31,-100,-100,-100,0,0,100,0.00,40.00,0,-999,0,0.00